Hourly Weather Astana

Today, 7 July, Tuesday

Time Temperature Precipitation Wind Pressure Humidity
00:00 +17°C° 0 mm 0 mps 726 mmHg 72%
01:00 +16°C° 0 mm 0 mps 726 mmHg 73%
02:00 +16°C° 0 mm 0 mps 726 mmHg 74%
03:00 +16°C° 0 mm 0 mps 726 mmHg 75%
04:00 +16°C° 0 mm 0 mps 726 mmHg 76%
05:00 +16°C° 0 mm 0 mps 726 mmHg 77%
06:00 +18°C° 0 mm 0 mps 727 mmHg 72%
07:00 +19°C° 0 mm 0 mps 727 mmHg 66%
08:00 +21°C° 0 mm 0 mps 728 mmHg 60%
09:00 +22°C° 0.3 mm 0 mps 728 mmHg 56%
10:00 +23°C° 0.3 mm 0 mps 728 mmHg 51%
11:00 +24°C° 0.3 mm 0 mps 728 mmHg 47%
12:00 +27°C° 0.1 mm 1 mps 728 mmHg 46%
13:00 +27°C° 0.1 mm 1 mps 728 mmHg 46%
14:00 +27°C° 0.1 mm 1 mps 728 mmHg 45%
15:00 +27°C° 0 mm 2 mps 728 mmHg 46%
16:00 +27°C° 0 mm 2 mps 728 mmHg 47%
17:00 +27°C° 0 mm 2 mps 728 mmHg 49%
18:00 +26°C° 0 mm 2 mps 728 mmHg 53%
19:00 +24°C° 0 mm 2 mps 728 mmHg 58%
20:00 +23°C° 0 mm 2 mps 728 mmHg 63%
21:00 +21°C° 0 mm 2 mps 728 mmHg 64%
22:00 +20°C° 0 mm 2 mps 728 mmHg 66%
23:00 +20°C° 0 mm 2 mps 729 mmHg 67%

Tomorrow, 8 July, Wednesday

Time Temperature Precipitation Wind Pressure Humidity
00:00 +19°C° 0 mm 2 mps 728 mmHg 69%
01:00 +19°C° 0 mm 2 mps 728 mmHg 70%
02:00 +19°C° 0 mm 2 mps 728 mmHg 72%
03:00 +18°C° 0 mm 2 mps 728 mmHg 74%
04:00 +18°C° 0 mm 2 mps 729 mmHg 77%
05:00 +18°C° 0 mm 2 mps 729 mmHg 80%
06:00 +19°C° 0 mm 2 mps 729 mmHg 75%
07:00 +21°C° 0 mm 3 mps 729 mmHg 70%
08:00 +22°C° 0 mm 3 mps 730 mmHg 66%
09:00 +24°C° 0.7 mm 3 mps 730 mmHg 62%
10:00 +25°C° 0.7 mm 4 mps 730 mmHg 58%
11:00 +26°C° 0.7 mm 4 mps 730 mmHg 54%
12:00 +26°C° 0.1 mm 4 mps 730 mmHg 53%
13:00 +27°C° 0.1 mm 4 mps 730 mmHg 51%
14:00 +27°C° 0.1 mm 4 mps 730 mmHg 50%
15:00 +27°C° 0.1 mm 4 mps 730 mmHg 51%
16:00 +27°C° 0.1 mm 4 mps 730 mmHg 52%
17:00 +27°C° 0.1 mm 4 mps 730 mmHg 52%
18:00 +26°C° 0 mm 4 mps 730 mmHg 57%
19:00 +24°C° 0 mm 3 mps 730 mmHg 61%
20:00 +22°C° 0 mm 3 mps 730 mmHg 65%
21:00 +21°C° 0 mm 3 mps 730 mmHg 68%
22:00 +21°C° 0 mm 4 mps 730 mmHg 71%
23:00 +20°C° 0 mm 4 mps 730 mmHg 73%

Day after tomorrow, 9 July, Thursday

Time Temperature Precipitation Wind Pressure Humidity
00:00 +19°C° 0 mm 4 mps 730 mmHg 75%
01:00 +19°C° 0 mm 3 mps 730 mmHg 77%
02:00 +18°C° 0 mm 3 mps 730 mmHg 79%
03:00 +18°C° 0 mm 3 mps 731 mmHg 80%
04:00 +18°C° 0 mm 3 mps 731 mmHg 81%
05:00 +17°C° 0 mm 3 mps 731 mmHg 82%
06:00 +19°C° 0 mm 3 mps 731 mmHg 76%
07:00 +21°C° 0 mm 4 mps 731 mmHg 71%
08:00 +22°C° 0 mm 4 mps 731 mmHg 65%
09:00 +25°C° 0 mm 4 mps 731 mmHg 60%
10:00 +26°C° 0 mm 4 mps 731 mmHg 54%
11:00 +27°C° 0 mm 5 mps 731 mmHg 49%
12:00 +27°C° 0 mm 4 mps 731 mmHg 47%
13:00 +27°C° 0 mm 4 mps 731 mmHg 45%
14:00 +28°C° 0 mm 4 mps 731 mmHg 43%
15:00 +28°C° 0 mm 4 mps 730 mmHg 42%
16:00 +28°C° 0 mm 4 mps 730 mmHg 42%
17:00 +28°C° 0 mm 4 mps 730 mmHg 41%
18:00 +27°C° 0 mm 3 mps 730 mmHg 47%
19:00 +26°C° 0 mm 3 mps 729 mmHg 54%
20:00 +24°C° 0 mm 2 mps 729 mmHg 60%
21:00 +24°C° 0 mm 2 mps 729 mmHg 63%
22:00 +23°C° 0 mm 2 mps 729 mmHg 65%
23:00 +21°C° 0 mm 2 mps 728 mmHg 68%

10 July, Friday

Time Temperature Precipitation Wind Pressure Humidity
00:00 +20°C° 0 mm 2 mps 728 mmHg 69%
01:00 +20°C° 0 mm 2 mps 728 mmHg 71%
02:00 +19°C° 0 mm 2 mps 728 mmHg 73%
03:00 +19°C° 0 mm 2 mps 728 mmHg 75%
04:00 +19°C° 0 mm 2 mps 727 mmHg 78%
05:00 +19°C° 0 mm 3 mps 727 mmHg 80%
06:00 +20°C° 0.2 mm 3 mps 727 mmHg 77%
07:00 +22°C° 0.2 mm 4 mps 727 mmHg 75%
08:00 +25°C° 0.2 mm 5 mps 727 mmHg 72%
09:00 +25°C° 0.6 mm 5 mps 727 mmHg 71%
10:00 +26°C° 0.6 mm 5 mps 726 mmHg 71%
11:00 +26°C° 0.6 mm 5 mps 726 mmHg 70%
12:00 +27°C° 0.2 mm 5 mps 726 mmHg 64%
13:00 +29°C° 0.2 mm 5 mps 726 mmHg 58%
14:00 +30°C° 0.2 mm 5 mps 725 mmHg 53%
15:00 +30°C° 0.2 mm 6 mps 725 mmHg 54%
16:00 +30°C° 0.2 mm 6 mps 725 mmHg 55%
17:00 +29°C° 0.2 mm 6 mps 725 mmHg 56%
18:00 +28°C° 0.5 mm 5 mps 725 mmHg 61%
19:00 +27°C° 0.5 mm 4 mps 725 mmHg 67%
20:00 +26°C° 0.5 mm 3 mps 725 mmHg 73%
21:00 +25°C° 0.1 mm 3 mps 725 mmHg 76%
22:00 +24°C° 0.1 mm 3 mps 725 mmHg 79%
23:00 +22°C° 0.1 mm 3 mps 725 mmHg 81%

11 July, Saturday

Time Temperature Precipitation Wind Pressure Humidity
00:00 +21°C° 0 mm 2 mps 725 mmHg 84%
01:00 +21°C° 0 mm 2 mps 725 mmHg 86%
02:00 +20°C° 0 mm 2 mps 725 mmHg 89%
03:00 +20°C° 0 mm 2 mps 725 mmHg 90%
04:00 +21°C° 0 mm 1 mps 725 mmHg 91%
05:00 +21°C° 0 mm 1 mps 725 mmHg 92%
06:00 +23°C° 0 mm 1 mps 726 mmHg 86%
07:00 +24°C° 0 mm 2 mps 726 mmHg 80%
08:00 +26°C° 0 mm 2 mps 726 mmHg 74%
09:00 +27°C° 0.6 mm 3 mps 726 mmHg 66%
10:00 +29°C° 0.6 mm 3 mps 726 mmHg 58%
11:00 +30°C° 0.6 mm 4 mps 726 mmHg 50%
12:00 +30°C° 0.2 mm 4 mps 726 mmHg 50%
13:00 +32°C° 0.2 mm 5 mps 726 mmHg 50%
14:00 +32°C° 0.2 mm 5 mps 726 mmHg 50%
15:00 +32°C° 0 mm 5 mps 726 mmHg 50%
16:00 +32°C° 0 mm 5 mps 726 mmHg 51%
17:00 +32°C° 0 mm 5 mps 726 mmHg 52%
18:00 +29°C° 0 mm 4 mps 725 mmHg 58%
19:00 +28°C° 0 mm 4 mps 725 mmHg 64%
20:00 +26°C° 0 mm 3 mps 725 mmHg 71%
21:00 +26°C° 0 mm 3 mps 725 mmHg 73%
22:00 +25°C° 0 mm 3 mps 725 mmHg 76%
23:00 +24°C° 0 mm 3 mps 725 mmHg 78%

12 July, Sunday

Time Temperature Precipitation Wind Pressure Humidity
00:00 +24°C° 0 mm 2 mps 725 mmHg 80%
01:00 +23°C° 0 mm 2 mps 725 mmHg 82%
02:00 +23°C° 0 mm 2 mps 725 mmHg 84%
03:00 +23°C° 0 mm 1 mps 725 mmHg 85%
04:00 +23°C° 0 mm 1 mps 725 mmHg 86%
05:00 +22°C° 0 mm 1 mps 725 mmHg 87%
06:00 +24°C° 0 mm 1 mps 725 mmHg 81%
07:00 +26°C° 0 mm 1 mps 725 mmHg 75%
08:00 +27°C° 0 mm 1 mps 725 mmHg 69%
09:00 +28°C° 0 mm 1 mps 725 mmHg 64%
10:00 +30°C° 0 mm 2 mps 725 mmHg 59%
11:00 +31°C° 0 mm 2 mps 725 mmHg 53%
12:00 +31°C° 0.2 mm 2 mps 725 mmHg 51%
13:00 +31°C° 0.2 mm 2 mps 725 mmHg 50%
14:00 +33°C° 0.2 mm 3 mps 724 mmHg 48%
15:00 +33°C° 0 mm 3 mps 724 mmHg 46%
16:00 +33°C° 0 mm 3 mps 724 mmHg 45%
17:00 +33°C° 0 mm 3 mps 724 mmHg 44%
18:00 +31°C° 0 mm 3 mps 723 mmHg 48%
19:00 +29°C° 0 mm 2 mps 723 mmHg 53%
20:00 +28°C° 0 mm 1 mps 723 mmHg 57%
21:00 +27°C° 0.4 mm 1 mps 723 mmHg 60%
22:00 +26°C° 0.4 mm 1 mps 723 mmHg 63%
23:00 +25°C° 0.4 mm 1 mps 723 mmHg 65%
Show more